Weather History for KDUG - March, 2014

Change the Weather History Date:

Monday, March 31, 2014

  Actual Average Record
Temperature  
Mean Temperature 58 °F 57 °F  
Max Temperature 80 °F 75 °F 89 °F (1989)
Min Temperature 36 °F 39 °F 26 °F (1976)
Degree Days  
Heating Degree Days 7 8  
Month to date heating degree days 250 325  
Since 1 July heating degree days 2214 2361  
Cooling Degree Days 0 0  
Month to date cooling degree days 0 1  
Year to date cooling degree days 0 1  
Growing Degree Days 8 (Base 50)    
Moisture  
Dew Point 12 °F    
Average Humidity 21    
Maximum Humidity 37    
Minimum Humidity 4    
Precipitation  
Precipitation 0.00 in 0.01 in 0.15 in (1997)
Month to date precipitation 0.44 0.50  
Year to date precipitation 0.44 1.89  
Sea Level Pressure  
Sea Level Pressure 29.89 in    
Wind  
Wind Speed 10 mph (WSW)    
Max Wind Speed 24 mph    
Max Gust Speed 41 mph    
Visibility 10 miles    
Events      
T = Trace of Precipitation, MM = Missing Value Source: NWS Daily Summary

Daily Weather History Graph

Daily Weather History Graph

Search for Another Location

Airport or City:

Trip Planner

Search our weather history database for the weather conditions in past years. The results will help you decide how hot, cold, wet, or windy it might be!

Date:

Astronomy

Mar. 31, 2014 Rise Set
Actual Time 6:08 AM MST 6:37 PM MST
Civil Twilight 5:43 AM MST 7:01 PM MST
Nautical Twilight 5:15 AM MST 7:30 PM MST
Astronomical Twilight 4:46 AM MST 7:59 PM MST
Moon 6:37 AM MST 7:53 PM MST
Length of Visible Light 13h 17m
Length of Day
12h 29m
New Moon, 1% of the Moon is Illuminated
Mar 31
New Moon
Apr 7
First Quarter
Apr 15
Full
Apr 22
Last Quarter
Apr 28
New

Hourly Weather History & Observations

Time (MST) Temp. Windchill Dew Point Humidity Pressure Visibility Wind Dir Wind Speed Gust Speed Precip Events Conditions
12:56 AM 53.1 °F - 19.0 °F 26% 29.87 in 10.0 mi NNW 9.2 mph - N/A   Clear
1:56 AM 46.0 °F 43.9 °F 17.1 °F 31% 29.86 in 10.0 mi SE 4.6 mph - N/A   Clear
2:56 AM 44.1 °F 41.5 °F 16.0 °F 32% 29.86 in 10.0 mi NNE 4.6 mph - N/A   Clear
3:56 AM 43.0 °F 38.2 °F 17.1 °F 35% 29.87 in 10.0 mi North 8.1 mph - N/A   Clear
4:56 AM 43.0 °F 37.2 °F 17.1 °F 35% 29.89 in 10.0 mi North 10.4 mph - N/A   Clear
5:56 AM 37.9 °F 34.4 °F 14.0 °F 38% 29.93 in 10.0 mi WSW 4.6 mph - N/A   Clear
6:56 AM 42.1 °F 39.2 °F 15.1 °F 34% 29.96 in 10.0 mi North 4.6 mph - N/A   Clear
7:56 AM 54.0 °F - 18.0 °F 24% 29.97 in 10.0 mi Calm Calm - N/A   Clear
8:56 AM 62.1 °F - 14.0 °F 15% 29.95 in 10.0 mi South 3.5 mph - N/A   Clear
9:56 AM 66.0 °F - 10.0 °F 11% 29.94 in 10.0 mi Variable 3.5 mph - N/A   Clear
10:56 AM 71.1 °F - 15.1 °F 12% 29.93 in 10.0 mi West 12.7 mph - N/A   Clear
11:56 AM 73.9 °F - 12.9 °F 10% 29.91 in 10.0 mi WSW 13.8 mph 23.0 mph N/A   Clear
12:56 PM 75.0 °F - 12.9 °F 9% 29.88 in 10.0 mi SSW 8.1 mph 21.9 mph N/A   Clear
1:56 PM 75.9 °F - 10.0 °F 8% 29.86 in 10.0 mi West 8.1 mph 20.7 mph N/A   Clear
2:56 PM 79.0 °F - -2.0 °F 4% 29.84 in 10.0 mi West 23.0 mph 41.4 mph N/A   Clear
3:56 PM 78.1 °F - 3.9 °F 6% 29.83 in 10.0 mi West 19.6 mph 27.6 mph N/A   Clear
4:56 PM 77.0 °F - 3.0 °F 6% 29.83 in 10.0 mi West 17.3 mph 25.3 mph N/A   Clear
5:56 PM 73.9 °F - 7.0 °F 8% 29.86 in 10.0 mi West 17.3 mph - N/A   Clear
6:56 PM 70.0 °F - 10.9 °F 10% 29.87 in 10.0 mi WSW 13.8 mph - N/A   Clear
7:56 PM 63.0 °F - 10.9 °F 13% 29.87 in 10.0 mi SW 10.4 mph - N/A   Clear
8:56 PM 62.1 °F - 10.9 °F 13% 29.87 in 10.0 mi SW 13.8 mph - N/A   Clear
9:56 PM 63.0 °F - 12.9 °F 14% 29.87 in 10.0 mi SW 11.5 mph - N/A   Clear
10:56 PM 57.0 °F - 12.9 °F 18% 29.88 in 10.0 mi WSW 8.1 mph - N/A   Clear
11:56 PM 57.9 °F - 16.0 °F 19% 29.88 in 10.0 mi SW 6.9 mph - N/A   Clear